Regional Weather Roundup
Issued by NWS

Home | Current Version | Previous Version | Text Only | Print | Product List | Glossary Off
Versions: 1 2 3 4 5 6 7 8 9 10 11 12 13 14 15 16 17 18 19 20 21 22 23 24 25 26 27 28 29 30 31 32 33 34 35 36 37 38 39 40 41 42 43 44 45 46 47 48 49 50

000
ASUS45 KCYS 021210
RWRWY

WYOMING REGIONAL WEATHER ROUNDUP
NATIONAL WEATHER SERVICE CHEYENNE WY
600 AM MDT TUE JUN 02 2015

NOTE:  "FAIR" INDICATES FEW OR NO CLOUDS BELOW 12,000 FEET
WITH NO SIGNIFICANT WEATHER AND/OR OBSTRUCTIONS TO VISIBILITY.

WYZ001-021300-
...YELLOWSTONE NATIONAL PARK...

CITY           SKY/WX    TMP DP  RH WIND       PRES   REMARKS
LK YELLOWSTONE   N/A     31  29  92 CALM      30.12S
6HR MIN TEMP:  30; 6HR MAX TEMP:  39;

W YELLOWSTONE  NOT AVBL

$$
WYZ002>013-054>058-071-098>099-021300-
...NORTHERN WYOMING...

CITY           SKY/WX    TMP DP  RH WIND       PRES   REMARKS
JACKSON        MOCLDY    39  39 100 CALM      30.10R
CODY           CLEAR     48  41  76 SW3       29.95R
GREYBULL       CLEAR     50  48  93 SE3       29.92R
6HR MIN TEMP:  49; 6HR MAX TEMP:  62;

WORLAND        CLEAR     50  48  93 S8        29.93R
6HR MIN TEMP:  47; 6HR MAX TEMP:  61;

SHERIDAN       PTCLDY    48  46  93 W5        29.89R
6HR MIN TEMP:  46; 6HR MAX TEMP:  61; 6HR PCP: TRACE;

BUFFALO        CLEAR     51  48  89 SW8       29.92R
6HR MIN TEMP:  50; 6HR MAX TEMP:  63;

GILLETTE       CLEAR     53  50  89 CALM      29.90R
6HR MIN TEMP:  51; 6HR MAX TEMP:  64;

HULETT         CLOUDY    59  52  77 CALM      29.92R
NEWCASTLE      FAIR      55  48  76 SE6       29.89R

$$
WYZ014>020-022>026-101>103-021300-
...CENTRAL WYOMING...

CITY           SKY/WX    TMP DP  RH WIND       PRES   REMARKS
BIG PINEY      PTCLDY    37  35  92 CALM      30.09R
6HR MIN TEMP:  37; 6HR MAX TEMP:  45;

PINEDALE       PTCLDY    36  36 100 W5        30.10R WCI  32
DUBOIS         MOCLDY    41  34  75 W13       30.07R
LANDER         CLEAR     48  40  73 CALM      29.97R
6HR MIN TEMP:  46; 6HR MAX TEMP:  56;

RIVERTON       PTCLDY    47  41  80 NW7       29.98R
6HR MIN TEMP:  46; 6HR MAX TEMP:  57;

CASPER         PTCLDY    49  45  86 CALM      29.96S
6HR MIN TEMP:  47; 6HR MAX TEMP:  62;

DOUGLAS        PTCLDY    54  48  80 CALM      29.94S
6HR MIN TEMP:  53; 6HR MAX TEMP:  62;


$$
WYZ021-027>030-104>119-021300-
...SOUTHERN WYOMING...

CITY           SKY/WX    TMP DP  RH WIND       PRES   REMARKS
EVANSTON       PTCLDY    48  37  65 CALM      30.06R
6HR MIN TEMP:  45; 6HR MAX TEMP:  51;

KEMMERER       CLEAR     41  36  81 N12       30.08S
FORT BRIDGER   CLEAR     48  41  76 CALM      30.09R
ROCK SPRINGS   MOCLDY    50  37  61 E3        30.06R
6HR MIN TEMP:  47; 6HR MAX TEMP:  53;

DIXON          FAIR      45  40  82 CALM      30.09R
RAWLINS        PTCLDY    48  43  82 CALM      30.05R
6HR MIN TEMP:  46; 6HR MAX TEMP:  59; 6HR PCP:  0.01;

SARATOGA       FAIR      45  41  87 S13       30.08S
LARAMIE        PTCLDY    41  39  93 SW9       30.09R
6HR MIN TEMP:  40; 6HR MAX TEMP:  49; 6HR PCP: TRACE;

CHEYENNE       PTCLDY    49  45  86 W5        30.02F
6HR MIN TEMP:  47; 6HR MAX TEMP:  58; 6HR PCP:  0.01;

TORRINGTON     MOCLDY    54  51  90 N7        29.93R
6HR MIN TEMP:  54; 6HR MAX TEMP:  62;

PINE BLUFFS    CLOUDY    55  55 100 S6        30.01R

$$



USA.gov is the U.S. government's official web portal to all federal, state and local government web resources and services.